Location: Ay?beleni
(36.6500°N, 30.3000°E)
Time: 01:17:04
(UTC+00:00)

Cosmos 1328 - Pass Details

Date: 09 April 2020
Orbit: 539 x 544 km, 82.5° (Epoch: 06 June)

Event Time Altitude Azimuth Distance (km) Brightness Sun altitude
Rises 17:31:34 0° 355° (N) 2,716 7.7 -13.1°
Reaches altitude 10° 17:33:45 10° 357° (N) 1,819 6.8 -13.5°
Maximum altitude 17:37:44 75° 83° (E) 569 3.7 -14.2°
Drops below altitude 10° 17:41:43 10° 169° (SSE) 1,806 6.1 -15.0°
Enters shadow 17:41:46 10° 169° (SSE) 1,827 6.2 -15.0°
